sat.trackr.live / text

‹ back to catalog

STARLINK-33551

NORAD 62110 · 2024-220Y

PAYLOAD ACTIVE UNKNOWN

§ Identity

Operator
Country
US
Launch date
2024-11-25
Launch site
AFETR
Launch vehicle
Mass (kg)
RCS (m²)

Purposes: comms

External: N2YO · Heavens-Above · Gunter

§ Orbital elements

Epoch: 2026-09-21T03:33:50.187456Z

Period
94.27 min
Inclination
43.0006°
Eccentricity
0.0001017
Mean motion
15.27581102 rev/d
Perigee alt
482.3 km
Apogee alt
483.7 km
Semi-major
6,861.2 km
B*
3.1163e-4
RAAN
181.7330°
Arg perigee
272.1102°
Mean anomaly
87.9633°
Rev number
10,308

§ Raw data

STARLINK-335511 62110U 24220Y   26264.14849754  .00008323  00000+0  31163-3 0  99942 62110  43.0006 181.7330 0001017 272.1102  87.9633 15.27581102103082

JSON: /api/v1/satellites/62110 · /tle

For live sub-satellite position, see the globe view (requires WebGL).

§ Visibility from observer

Set your observer location to see the next 7 days of passes ≥ 10°. The values pass through the URL so the page stays shareable.

No JS? Fill the form by hand. The geolocation button needs JavaScript.